Huvudsida
METAR-TAF:

METAR-TAF

Flygplatser :

Pajala Airport

Pajala, Sverige

latitud: 67-14-44N, longitud: 023-04-08E, höjd: 165 m

Aktuellt väderrapport

Denna rapport gjordes för 21 minuter sedan, klockan 22:20 UTC
Vind 4 kt från nordost
Temperatur -10°C
Fuktighet 92%
Tryck 1014 hPa
lätt snö

METAR: ESUP 112220Z AUTO 04004KT //// R11///// -SN FEW006/// M10/M11 Q1014

Tid: 23:41 (22:41 UTC)


TAF: saknas

Aktuella väderrapporter och prognoser från 4000 flygplatser (METAR- och TAF-rapporter).

De tillgängliga stationerna syns som gula och röda prickar på kartan.

För musen över prickarna för att se namnen på stationerna.

Klicka sedan för att få väderrapporter och prognoser.

För att ändra kartan: Klicka på de gröna knapparna med ett svart kors på för att zooma in; den gröna knappen med ett streck på för att zooma ut; eller på de gröna pilarna för angränsande kartor.


METAR-TAF: